• Join FlightAware (Why Join?)
  • Login
  • US Flag 
09:44PM EDT


 

Airport Tracker/Info


-or-


 

Live Flight TrackerFlight Track Log ✈ N273SK ✈ 16-Apr-2013 ✈ KCLE - KLGA

Flight Track Log - Related Links

Times and Time Zones

All times are in EDT time to prevent confusion due to time zone crossing. See the N273SK flight status page for this flight to view local times or setup timezone preferences in your user account.

Time Position Orientation Groundspeed Altitude Reporting Facility
EDT Latitude Longitude Course Direction KTS MPH feet Rate Location/Type
09:45AM 41.3981 -81.8731 105° East 167 192 1,700  Level Cleveland Center
09:46AM 41.3997 -81.9092 274° West 178 205 3,800 3,240 Climbing Cleveland Center
09:46AM 41.4081 -81.9286 300° West 188 216 4,700 3,060 Climbing Cleveland Center
09:47AM 41.4478 -81.9100 19° North 276 318 6,900 2,340 Climbing Cleveland Center
09:48AM 41.6729 -81.5772 37° Northeast  Level FlightAware Approximate
09:48AM 41.4964 -81.8417 46° Northeast 288 331 8,800  Level Cleveland Center
09:49AM 41.7645 -81.4855 37° Northeast  Level FlightAware Approximate
09:49AM 41.4936 -81.7253 92° East 267 307 11,500  Level Cleveland Center
09:50AM 41.8324 -81.3785 105° East  Level FlightAware Approximate
09:50AM 41.4761 -81.6003 101° East 296 341 13,600  Level Cleveland Center
09:51AM 41.8027 -81.2302 105° East  Level FlightAware Approximate
09:51AM 41.4542 -81.4586 102° East 338 389 15,500  Level Cleveland Center
09:52AM 41.4406 -81.3172 97° East 370 426 17,400 1,800 Climbing Cleveland Center
09:53AM 41.4331 -81.1703 94° East 387 445 19,100 1,800 Climbing Cleveland Center
09:54AM 41.4233 -81.0178 95° East 405 466 21,000 1,800 Climbing Cleveland Center
09:55AM 41.4136 -80.8600 95° East 416 479 22,800 1,800 Climbing Cleveland Center
09:56AM 41.4056 -80.7050 94° East 427 491 24,600 1,740 Climbing Cleveland Center
09:57AM 41.4056 -80.5444 90° East 432 497 26,300 1,620 Climbing Cleveland Center
09:58AM 41.4158 -80.3811 85° East 432 497 27,900 1,500 Climbing Cleveland Center
09:59AM 41.4236 -80.2175 86° East 437 503 29,300 1,440 Climbing Cleveland Center
10:00AM 41.4083 -80.0544 97° East 437 503 30,800 840 Climbing Cleveland Center
10:01AM 41.3908 -79.8856 98° East 447 514 31,000 60 Climbing Cleveland Center
10:02AM 41.3750 -79.7058 97° East 465 535 31,000  Level Cleveland Center
10:03AM 41.3589 -79.5264 97° East 478 550 31,000  Level Cleveland Center
10:04AM 41.3406 -79.3442 98° East 490 564 31,000  Level Cleveland Center
10:05AM 41.3217 -79.1619 98° East 490 564 31,000  Level Cleveland Center
10:06AM 41.3025 -78.9800 98° East 490 564 31,000  Level Cleveland Center
10:07AM 41.2875 -78.8008 96° East 490 564 31,000  Level Cleveland Center
10:08AM 41.2656 -78.6192 99° East 490 564 31,000  Level Cleveland Center
10:09AM 41.2478 -78.4372 97° East 490 564 31,000  Level Cleveland Center
10:09AM 41.2353 -78.3231 98° East 500 575 31,000  Level New York Center
10:10AM 41.2119 -78.1300 99° East 500 575 31,000  Level New York Center
10:11AM 41.1897 -77.9511 99° East 495 570 31,000  Level New York Center
10:13AM 41.1686 -77.7778 99° East 487 560 31,000  Level New York Center
10:14AM 41.1458 -77.5989 100° East 482 555 31,000  Level New York Center
10:15AM 41.1244 -77.4233 99° East 482 555 31,000  Level New York Center
10:15AM 41.0989 -77.2472 101° East 482 555 31,000 -420 Level New York Center
10:16AM 41.0750 -77.0717 100° East 482 555 30,200 -1,620 Descending New York Center
10:17AM 41.0528 -76.8989 100° East 482 555 27,800 -2,160 Descending New York Center
10:18AM 41.0281 -76.7314 101° East 474 545 25,900 -1,980 Descending New York Center
10:20AM 40.9750 -76.5839 115° Southeast 462 532 23,900 -2,460 Descending New York Center
10:21AM 40.9211 -76.4503 118° Southeast 435 501 21,000 -2,340 Descending New York Center
10:21AM 40.8958 -76.3217 105° East 409 471 19,400 -1,620 Descending New York Center
10:22AM 40.8731 -76.1828 102° East 367 422 17,800 -1,680 Descending New York Center
10:23AM 40.8536 -76.0606 102° East 344 396 16,100 -1,620 Descending New York Center
10:25AM 40.8336 -75.9464 103° East 325 374 14,600 -1,440 Descending New York Center
10:26AM 40.8175 -75.8411 101° East 308 354 13,200 -840 Descending New York Center
10:26AM 40.7867 -75.7319 110° East 302 348 13,000 -120 Descending New York Center
10:27AM 40.7517 -75.6197 112° Southeast 338 389 13,000 -360 Level New York Center
10:29AM 40.7097 -75.4717 110° East 383 441 12,300 -1,080 Descending New York Center
10:30AM 40.6669 -75.3372 113° Southeast 389 448 10,900 -1,200 Descending New York Center
10:31AM 40.6319 -75.2203 111° Southeast 384 442 10,000 -480 Descending New York Center
10:31AM 40.5950 -75.0947 111° Southeast 362 417 10,000  Level New York Center
10:32AM 40.5558 -74.9639 111° Southeast 356 410 10,000  Level New York Center
10:33AM 40.5167 -74.8500 114° Southeast 309 356 10,000  Level New York TRACON
10:35AM 40.4500 -74.6333 112° Southeast 308 354 10,000 -360 Level New York TRACON
10:37AM 40.4667 -74.4333 84° East 300 345 8,700 -720 Descending New York TRACON
10:38AM 40.4667 -74.3333 90° East 273 314 8,000 -360 Descending New York TRACON
10:39AM 40.4833 -74.2333 78° East 294 338 8,000 -300 Level New York TRACON
10:40AM 40.5333 -74.1333 57° Northeast 297 342 7,400 -1,080 Descending New York TRACON
10:41AM 40.5833 -74.0667 45° Northeast 279 321 5,900 -1,140 Descending New York TRACON
10:44AM 40.7378 -74.0192 13° North 282 325 4,000 -660 Descending New York Center
10:44AM 40.8075 -73.9842 21° North 275 316 4,000  Level New York Center
10:45AM 40.8647 -73.9458 27° Northeast 233 268 4,000 -240 Level New York Center
10:47AM 40.7791 -73.8742 148° Southeast  Level Estimated
10:48AM 40.9667 -73.7833 148° Southeast 212 244 3,100  Level New York TRACON
10:50AM 40.8686 -73.8242 198° South  Level FlightAware Approximate
10:54AM 40.7772 -73.8726 148° Southeast  Level Estimated